Cloud_Cover
5 0 100 100 100 62 95 6 11 18 1 1 1 16 0 2 3 51 60 15 5 3 39 27 5 3 5 5 4 11 5 48 23 8 0 2 0 0 7 1 5 81 100
0 2 100 100 100 92 100 11 14 16 6 0 0 13 66 92 100 100 57 6 0 3 97 9 34 18 7 16 93 43 66 46 58 5 5 5 2 5 4 0 4 34 48
3 4 100 100 100 100 20 94 18 8 0 0 2 24 100 61 100 100 99 78 4 5 39 48 30 100 72 90 100 100 100 64 100 95 77 22 5 5 5 4 2 4 12
8 61 88 100 100 100 78 21 33 6 0 3 3 5 100 100 100 100 100 100 32 7 70 90 100 100 100 100 100 100 100 100 100 100 100 100 97 18 9 5 5 8 74
13 1 0 11 100 100 96 23 26 23 0 5 5 88 100 96 100 100 100 100 100 76 82 100 100 100 100 100 100 100 95 100 100 100 100 100 100 99 100 50 50 72 38
20 0 0 0 72 100 100 10 20 20 4 7 5 100 100 100 100 80 100 100 100 100 100 100 100 100 100 100 100 100 100 100 100 100 100 100 100 100 100 46 55 39 97
76 4 0 0 5 34 14 9 5 0 42 71 93 100 100 100 100 80 100 100 100 100 100 100 100 100 100 100 100 100 100 100 100 98 100 100 100 100 100 100 96 41 57
8 5 3 0 5 48 86 33 0 0 5 85 100 100 100 100 87 85 100 89 100 100 100 100 100 100 100 100 100 100 100 100 98 100 100 100 100 100 100 93 100 100 98
1 27 33 68 100 100 15 0 0 0 5 100 100 100 100 100 100 100 100 91 100 100 100 100 100 100 100 100 100 100 100 100 100 100 100 100 100 100 99 100 97 100 100
15 5 28 9 65 73 0 0 1 27 31 100 100 100 100 96 100 100 100 84 100 81 100 100 100 100 100 100 100 100 100 100 100 100 100 100 100 100 100 100 100 100 100
85 30 14 20 23 64 53 55 67 86 81 100 100 100 100 83 100 100 100 100 100 100 100 100 100 100 100 100 100 100 100 100 100 100 100 100 100 100 100 100 100 100 100
100 100 34 38 47 100 100 95 100 100 100 100 100 100 100 100 100 100 100 100 100 100 100 100 100 100 100 100 100 100 100 100 100 100 100 100 100 100 100 100 100 100 100
100 100 78 64 44 100 98 100 100 100 100 94 100 100 100 100 100 100 100 100 100 100 100 100 100 100 100 100 100 100 100 100 94 95 99 100 100 100 99 100 100 100 100
98 84 76 73 78 99 100 100 100 79 99 98 100 100 94 100 100 100 100 100 100 100 100 100 99 100 100 100 100 100 100 100 100 100 100 100 100 100 100 100 100 100 100
44 89 97 67 43 99 100 100 60 70 69 77 100 100 100 100 100 100 100 100 100 100 100 79 100 100 100 100 100 83 92 100 99 100 100 100 100 100 100 100 100 100 100
34 100 100 82 71 92 100 93 13 9 4 99 100 100 100 100 100 100 100 100 100 100 100 84 100 81 84 98 96 100 94 99 97 100 100 100 100 100 100 100 100 100 100
30 100 100 100 77 86 95 30 0 0 3 100 100 98 100 100 100 100 100 100 100 100 100 88 100 92 100 95 98 100 100 100 99 98 92 100 78 90 99 99 100 100 100
56 100 100 100 77 100 100 98 0 0 0 100 100 100 100 100 100 100 100 100 100 100 100 100 75 76 100 88 97 100 100 100 100 69 66 82 100 100 94 88 100 100 96
20 98 100 100 100 100 100 100 69 0 0 12 100 100 100 100 100 100 100 71 100 100 100 100 100 100 100 95 96 100 100 100 100 93 69 100 100 100 98 100 100 100 53
18 72 100 100 100 100 100 100 97 3 0 0 46 100 100 100 100 100 100 100 82 100 100 100 100 100 100 100 87 97 98 100 100 100 98 98 65 84 73 88 94 100 83
40 85 100 100 100 100 100 100 100 73 72 20 5 81 100 100 100 100 100 100 100 100 100 100 86 81 100 100 100 98 100 100 96 100 100 100 100 100 100 100 99 100 100
100 100 100 100 100 100 100 100 100 100 100 100 72 100 100 100 100 100 91 98 100 99 100 100 100 100 100 85 100 100 100 100 100 100 91 100 100 100 100 100 100 100 100
100 100 100 100 100 100 100 100 100 100 100 100 100 56 49 41 96 100 100 100 100 100 98 99 100 100 100 100 100 100 100 98 99 100 100 100 100 100 97 100 98 100 100
100 100 100 100 100 100 100 100 100 100 100 100 100 100 100 100 49 95 100 100 100 100 100 100 100 100 100 100 100 100 100 100 100 100 99 86 97 92 97 100 100 100 98
100 100 100 100 100 100 100 84 100 100 100 100 100 100 100 85 100 90 83 100 100 100 100 100 100 100 100 84 100 100 100 92 100 99 100 100 100 97 100 100 100 96 71
100 100 100 100 100 100 100 100 95 82 100 100 100 100 87 100 100 100 49 75 100 100 100 100 100 100 100 100 100 100 100 100 100 100 100 100 79 80 91 98 99 100 100